This is the latest recevied weather packets stored in our database for station/object N7SWJ. If no packets are shown the sender has not sent any weather packets the latest 10 day(s).
| Time | Temp. | Humidity | Pressure | Rain* | Wind** | Luminosity | Snow |
|---|---|---|---|---|---|---|---|
| 1778101253 | 6.11° C | 65% | 1021.5 hPa | 0 mm | - | 291 W/m² | - |
| 1778100950 | 6.11° C | 61% | 1021.6 hPa | 0 mm | - | 206 W/m² | - |
| 1778100644 | 6.11° C | 62% | 1021.6 hPa | 0 mm | - | 184 W/m² | - |
| 1778100343 | 6.67° C | 61% | 1021.5 hPa | 0 mm | - | 204 W/m² | - |
| 1778100040 | 6.67° C | 63% | 1022 hPa | 0 mm | - | 217 W/m² | - |
| 1778099738 | 6.11° C | 60% | 1021.5 hPa | 0 mm | - | 233 W/m² | - |
| 1778099434 | 6.67° C | 60% | 1022 hPa | 0 mm | - | 254 W/m² | - |
| 1778099132 | 6.11° C | 63% | 1022 hPa | 0 mm | - | 279 W/m² | - |
| 1778098828 | 6.11° C | 63% | 1021.9 hPa | 0 mm | - | 272 W/m² | - |
| 1778098526 | 5.56° C | 60% | 1022 hPa | 0 mm | - | 291 W/m² | - |
| 1778098222 | 6.11° C | 63% | 1022.3 hPa | 0 mm | - | 288 W/m² | - |
| 1778097918 | 6.11° C | 63% | 1022.1 hPa | 0 mm | - | 271 W/m² | - |
| 1778097615 | 5.56° C | 61% | 1022 hPa | 0 mm | - | 227 W/m² | - |
| 1778097312 | 5.56° C | 65% | 1022 hPa | 0 mm | - | 222 W/m² | - |
| 1778097008 | 5.56° C | 64% | 1022.1 hPa | 0 mm | - | 217 W/m² | - |
| 1778096706 | 5° C | 67% | 1022 hPa | 0 mm | - | 224 W/m² | - |
| 1778096397 | 5° C | 63% | 1022.2 hPa | 0 mm | - | 224 W/m² | - |
| 1778096095 | 5° C | 62% | 1022.2 hPa | 0 mm | - | 235 W/m² | - |
| 1778095791 | 5.56° C | 65% | 1022.2 hPa | 0 mm | - | 265 W/m² | - |
| 1778095488 | 5.56° C | 68% | 1022.3 hPa | 0 mm | - | 272 W/m² | - |
| 1778095184 | 5.56° C | 69% | 1022.3 hPa | 0 mm | - | 298 W/m² | - |
| 1778094881 | 5.56° C | 63% | 1022.4 hPa | 0 mm | - | 316 W/m² | - |
| 1778094577 | 5° C | 65% | 1022.6 hPa | 0 mm | - | 333 W/m² | - |
| 1778094274 | 5° C | 69% | 1022.4 hPa | 0 mm | - | 397 W/m² | - |
| 1778093971 | 4.44° C | 68% | 1022.6 hPa | 0 mm | - | 349 W/m² | - |
* Rain latest hour (hover to see other rain measurements)
** Current wind speed in m/s (hover to see current wind gust speed)